Weather History for Hatteras, NC

Change the Weather History Date:

Thursday, October 28, 2010

  Actual Average Record
Temperature  
Mean Temperature 74 °F 62 °F  
Max Temperature 77 °F 69 °F 84 °F (1984)
Min Temperature 71 °F 56 °F 32 °F (1979)
Degree Days  
Heating Degree Days 0 4  
Month to date heating degree days 25 59  
Since 1 July heating degree days 25 62  
Cooling Degree Days 9 1  
Month to date cooling degree days 122 94  
Year to date cooling degree days 1847 1686  
Growing Degree Days 25 (Base 50)    
Moisture  
Dew Point 73 °F    
Average Humidity 94    
Maximum Humidity 100    
Minimum Humidity 87    
Precipitation  
Precipitation 0.06 in 0.17 in 4.55 in (2012)
Month to date precipitation 1.56 4.90  
Year to date precipitation 55.57 48.34  
Snow  
Snow 0.00 in - - ()
Month to date snowfall 0.0  
Since 1 July snowfall 0.0  
Snow Depth 0.00 in    
Sea Level Pressure  
Sea Level Pressure 30.00 in    
Wind  
Wind Speed 12 mph (SW)    
Max Wind Speed 17 mph    
Max Gust Speed 26 mph    
Visibility 7 miles    
Events Rain    
T = Trace of Precipitation, MM = Missing Value Source: NWS Daily Summary

Daily Weather History Graph

Daily Weather History Graph

Search for Another Location

Airport:

Trip Planner

Search our weather history database for the weather conditions in past years. The results will help you decide how hot, cold, wet, or windy it might be!

Date:

Astronomy

Oct. 28, 2010 Rise Set
Actual Time 7:20 AM EDT 6:11 PM EDT
Civil Twilight 6:53 AM EDT 6:38 PM EDT
Nautical Twilight 6:24 AM EDT 7:07 PM EDT
Astronomical Twilight 5:54 AM EDT 7:37 PM EDT
Moon 10:45 PM EDT (10/28) 12:32 PM EDT (10/28)
Length of Visible Light 11h 44m
Length of Day
10h 51m
Waning Gibbous, 70% of the Moon is Illuminated
Oct 28
Waning Gibbous
Oct 30
Last Quarter
Nov 6
New
Nov 13
First Quarter
Nov 21
Full

Hourly Weather History & Observations

Time (EDT) Temp. Dew Point Humidity Pressure Visibility Wind Dir Wind Speed Gust Speed Precip Events Conditions
12:51 AM 75.9 °F 73.0 °F 91% 30.09 in 8.0 mi SSW 15.0 mph 20.7 mph N/A   Clear
1:51 AM 75.9 °F 73.0 °F 91% 30.09 in 8.0 mi SSW 12.7 mph 20.7 mph N/A   Clear
2:51 AM 75.9 °F 73.0 °F 91% 30.08 in 8.0 mi SSW 11.5 mph 23.0 mph N/A   Clear
3:51 AM 75.9 °F 73.0 °F 91% 30.06 in 8.0 mi SW 15.0 mph 21.9 mph N/A   Clear
4:13 AM 75.2 °F 73.4 °F 94% 30.06 in 8.0 mi SW 13.8 mph - N/A   Mostly Cloudy
4:36 AM 75.2 °F 73.4 °F 94% 30.06 in 7.0 mi SW 13.8 mph 20.7 mph N/A   Scattered Clouds
4:51 AM 75.9 °F 73.0 °F 91% 30.06 in 8.0 mi SW 13.8 mph 20.7 mph N/A   Scattered Clouds
4:58 AM 75.2 °F 73.4 °F 94% 30.06 in 8.0 mi SW 13.8 mph 20.7 mph N/A   Mostly Cloudy
5:26 AM 75.2 °F 73.4 °F 94% 30.05 in 8.0 mi SW 13.8 mph 20.7 mph N/A   Scattered Clouds
5:36 AM 75.2 °F 73.4 °F 94% 30.05 in 8.0 mi SSW 15.0 mph 20.7 mph N/A   Mostly Cloudy
5:51 AM 75.9 °F 73.0 °F 91% 30.06 in 8.0 mi SW 13.8 mph - N/A   Mostly Cloudy
6:51 AM 75.9 °F 73.9 °F 94% 30.06 in 7.0 mi SW 12.7 mph - N/A   Overcast
7:41 AM 75.2 °F 73.4 °F 94% 30.06 in 6.0 mi SW 12.7 mph - N/A   Overcast
7:48 AM 75.2 °F 73.4 °F 94% 30.06 in 6.0 mi SW 15.0 mph 19.6 mph N/A   Overcast
7:51 AM 75.9 °F 73.9 °F 94% 30.06 in 6.0 mi SSW 13.8 mph 20.7 mph N/A   Overcast
8:28 AM 75.2 °F 73.4 °F 94% 30.05 in 6.0 mi SSW 15.0 mph 20.7 mph N/A   Mostly Cloudy
8:51 AM 75.9 °F 73.9 °F 94% 30.06 in 6.0 mi SSW 16.1 mph 20.7 mph N/A   Overcast
9:44 AM 77.0 °F 73.4 °F 89% 30.05 in 6.0 mi SSW 15.0 mph 20.7 mph N/A   Overcast
9:51 AM 77.0 °F 73.9 °F 90% 30.06 in 6.0 mi SW 13.8 mph 21.9 mph N/A   Overcast
10:24 AM 77.0 °F 73.4 °F 89% 30.06 in 6.0 mi SW 13.8 mph 19.6 mph N/A   Mostly Cloudy
10:35 AM 75.2 °F 71.6 °F 89% 30.06 in 7.0 mi SW 15.0 mph 24.2 mph N/A   Overcast
10:51 AM 75.0 °F 71.1 °F 87% 30.05 in 9.0 mi WSW 12.7 mph 20.7 mph N/A   Overcast
11:51 AM 75.0 °F 72.0 °F 90% 30.04 in 9.0 mi SW 11.5 mph - 0.00 in   Overcast
12:51 PM 75.9 °F 72.0 °F 87% 30.01 in 9.0 mi SW 13.8 mph 20.7 mph N/A   Overcast
1:51 PM 75.9 °F 71.1 °F 85% 29.98 in 10.0 mi WSW 12.7 mph 21.9 mph N/A   Overcast
2:10 PM 75.2 °F 71.6 °F 89% 29.97 in 10.0 mi WSW 13.8 mph 20.7 mph N/A   Overcast
2:42 PM 75.2 °F 73.4 °F 94% 29.96 in 2.5 mi WSW 12.7 mph - 0.03 in Rain Light Rain
2:51 PM 75.0 °F 73.0 °F 94% 29.96 in 5.0 mi WSW 12.7 mph - 0.04 in Rain Light Rain
3:47 PM 75.2 °F 73.4 °F 94% 29.93 in 6.0 mi SW 12.7 mph - N/A   Mostly Cloudy
3:51 PM 75.9 °F 73.9 °F 94% 29.93 in 6.0 mi SW 11.5 mph 18.4 mph N/A   Mostly Cloudy
4:47 PM 75.2 °F 73.4 °F 94% 29.93 in 7.0 mi SW 10.4 mph - N/A   Overcast
4:51 PM 75.9 °F 73.9 °F 94% 29.93 in 6.0 mi SSW 11.5 mph - N/A   Overcast
5:13 PM 75.2 °F 73.4 °F 94% 29.92 in 6.0 mi SW 11.5 mph - N/A   Mostly Cloudy
5:28 PM 75.2 °F 73.4 °F 94% 29.93 in 6.0 mi SW 10.4 mph - N/A   Mostly Cloudy
5:51 PM 75.0 °F 73.9 °F 96% 29.93 in 6.0 mi SW 10.4 mph - N/A   Overcast
6:51 PM 73.9 °F 73.0 °F 97% 29.93 in 6.0 mi WSW 8.1 mph - 0.00 in Rain Light Rain
7:32 PM 73.4 °F 73.4 °F 100% 29.93 in 6.0 mi WSW 12.7 mph 19.6 mph 0.01 in Rain Light Rain
7:51 PM 73.0 °F 72.0 °F 96% 29.94 in 8.0 mi WSW 11.5 mph - 0.01 in   Overcast
8:51 PM 73.0 °F 71.1 °F 93% 29.92 in 10.0 mi WSW 10.4 mph - N/A   Mostly Cloudy
9:51 PM 73.9 °F 73.0 °F 97% 29.91 in 5.0 mi WSW 11.5 mph - N/A   Scattered Clouds
10:01 PM 73.4 °F 73.4 °F 100% 29.91 in 5.0 mi WSW 10.4 mph - N/A   Mostly Cloudy
10:31 PM 73.4 °F 73.4 °F 100% 29.91 in 5.0 mi WSW 10.4 mph - N/A   Scattered Clouds
10:51 PM 73.9 °F 73.0 °F 97% 29.89 in 5.0 mi West 6.9 mph - N/A   Partly Cloudy
11:51 PM 73.9 °F 73.0 °F 97% 29.89 in 10.0 mi West 9.2 mph - 0.00 in   Overcast